Location: Gajan
(43.0218°N, 1.1244°E)
Time: 16:14:31
(UTC+00:00)

Cosmos 1356 - Pass Details

Date: 22 April 2021
Orbit: 438 x 442 km, 81.1° (Epoch: 12 May)

Event Time Altitude Azimuth Distance (km) Brightness Sun altitude
Rises 19:59:52 0° 349° (NNW) 2,445 7.8 -13.0°
Reaches altitude 10° 20:01:56 10° 348° (NNW) 1,569 6.8 -13.3°
Maximum altitude 20:05:22 82° 261° (W) 452 3.4 -13.9°
Enters shadow 20:08:05 15° 174° (S) 1,275 5.3 -14.3°
